CAPE
2074 1997 2050 1988 1894 1918 1381 1589 1366 965 1209 1210 1322 1478 1368 1178 1528 1341 1630 1293 1330 1535 1759 1191 1332 1878 1219 604 638 597 593 707 805 648 947 1124 1427 1757 1306 1481 1684 1650 1086
2458 2452 2175 2171 2093 1888 1691 1539 1357 1130 993 1407 1429 1601 1436 1576 1493 1351 1487 913 1140 1520 1830 1691 1435 1432 1379 1668 1033 918 629 654 1086 908 809 835 847 959 1536 1815 1488 1361 1217
2604 2507 2301 2302 2291 2036 1935 1680 1777 1733 1200 989 1484 1441 1553 1562 1352 1602 1570 1415 1421 1688 1717 1868 1766 1664 1274 1355 1277 1242 1109 1223 1319 979 1078 1153 963 832 950 1541 1690 1839 1824
2492 2551 2614 2424 2333 2224 2196 2179 1834 1898 1870 1668 1499 1563 1528 1531 1458 1603 1772 1719 1347 1434 1988 2110 1978 1827 1642 1506 1405 1381 1108 1077 775 756 646 657 611 732 736 1214 1120 805 1480
2674 2612 2751 2774 2602 2602 2603 2607 2445 2216 1985 2036 1825 1568 1571 1343 1210 1545 1734 1499 1516 1802 1945 1919 2028 2120 1603 1690 1575 1208 1163 1111 1108 990 936 791 900 1039 720 1100 839 640 1286
2817 2694 2894 3038 3040 2975 2876 2783 2744 2542 2342 2131 1974 1851 1726 1378 1048 1022 1577 1557 1154 1603 1583 2010 2080 1751 1624 1342 1154 980 960 948 1249 1422 1122 1011 1072 1428 1359 1187 1350 843 986
3147 3009 3033 3199 3147 3066 2931 2884 2843 2790 2589 2385 2133 2006 1955 1911 1294 876 866 817 903 1576 1652 1759 1639 947 1013 1378 1097 889 684 234 65 242 307 398 512 633 770 847 940 988 969
3118 3212 3176 3286 3331 3299 3156 3073 3076 2976 2876 2645 2250 2234 2207 2106 1593 1161 828 937 915 953 1001 1084 1261 1411 1569 1824 1803 1437 705 515 232 37 20 0 0 0 0 12 104 197 101
3349 3373 3279 3230 3262 3298 3245 3136 3102 3022 2965 2856 2506 2423 2446 2388 1627 1382 1231 1382 1307 1469 1438 1369 1415 1827 986 458 606 409 134 270 49 0 0 0 0 0 0 0 0 0 0
3172 3200 3175 3222 3109 3171 3345 3285 3194 3125 3022 2912 2815 2597 2419 2584 2201 1369 1320 1484 1216 1083 1071 1647 1468 1276 138 0 134 128 63 61 7 4 3 0 0 0 0 0 1 0 0
3173 3047 2899 2743 2861 2822 2851 3129 3144 3185 3100 3048 3037 2915 2816 2518 2337 1407 1134 1473 1030 968 1634 1780 1615 263 0 0 0 0 0 0 0 0 0 0 1 6 5 0 1 9 9
3279 3317 3348 3416 3133 3083 3083 2718 2141 2253 2502 2542 2391 2769 2845 2115 1605 931 881 967 1088 2051 1634 970 481 60 0 0 0 0 0 0 0 0 1 3 3 3 4 6 10 16 20
2032 1693 1791 1928 1908 2919 1943 496 150 514 449 654 482 61 1203 1003 1027 917 972 818 698 1120 795 367 6 0 0 0 0 0 0 0 0 5 2 5 1 1 0 7 15 13 24
1568 1468 1332 1293 953 1598 852 57 1 23 23 0 5 0 0 120 625 443 345 98 105 186 0 0 0 0 0 0 0 0 0 0 1 0 3 1 3 4 4 12 6 13 0
1014 870 1340 1109 1348 1497 1158 1436 1404 284 0 4 0 0 0 2 75 212 41 0 0 1 0 0 0 0 0 0 0 0 0 2 2 3 2 0 0 1 2 3 1 1 5
589 410 167 300 566 789 997 978 241 471 445 557 370 26 2 11 234 131 2 0 0 0 0 0 0 0 0 0 0 0 4 1 1 3 1 2 2 2 2 2 2 1 2
304 37 41 201 363 220 312 611 559 44 2 125 141 90 105 131 0 0 0 0 0 0 0 0 0 0 0 0 0 0 2 2 2 4 4 2 1 0 2 1 2 2 3
120 0 0 0 0 1 59 180 314 245 376 343 0 166 63 0 0 0 0 0 0 0 0 0 0 0 0 0 0 0 1 1 2 2 1 0 0 0 1 2 3 3 2
173 0 0 0 0 0 0 0 8 194 234 408 67 0 0 0 0 0 0 0 0 0 0 0 0 0 0 0 0 0 4 1 1 1 2 2 3 1 2 3 2 0 1
105 63 0 0 0 7 20 9 0 0 67 218 386 602 0 0 0 1 0 0 0 0 0 0 0 0 0 0 0 1 1 2 6 6 1 1 0 0 1 3 2 1 2
13 7 23 16 0 0 0 3 0 0 4 56 254 676 137 0 0 0 0 0 0 0 0 0 0 0 0 0 0 1 2 3 3 4 0 1 0 2 0 3 2 2 2
19 6 0 3 10 8 3 2 15 24 61 58 215 198 6 48 22 0 0 0 0 0 0 0 0 0 0 0 0 0 0 1 6 12 4 4 3 0 0 0 3 3 1
113 31 23 16 12 12 7 12 46 18 61 110 487 91 0 161 69 5 0 0 0 0 0 0 0 0 0 0 0 0 0 0 0 2 7 14 7 1 0 1 2 1 2
157 48 40 36 40 48 181 136 64 29 43 238 451 568 274 210 78 36 0 0 0 0 0 0 0 0 0 0 0 0 0 0 0 0 0 5 0 0 0 0 2 3 5
35 6 11 24 55 303 360 164 166 326 583 539 574 619 678 299 155 43 0 0 0 0 0 0 0 0 0 0 0 0 0 0 0 0 0 0 0 0 0 0 0 0 0
188 103 99 177 400 581 456 422 444 404 604 644 700 774 757 795 222 117 12 0 0 0 0 0 0 0 0 0 0 0 0 0 0 0 0 0 0 0 0 0 0 0 0
CIN
-94 -64 -42 -34 -21 -7 -3 -2 -12 -11 -1 -8 -2 -1 -1 -1 -1 -4 -1 -5 -4 -4 -3 -14 -9 -2 -3 -3 -2 -2 -5 -2 -1 -3 -2 -5 -5 -10 -6 -2 -1 -1 -5
-82 -61 -66 -35 -18 -15 -10 -9 -35 -36 -21 -4 -1 -2 -4 -1 -3 -5 -1 -1 -3 -1 -1 -2 -1 -2 -10 -5 -4 -4 -15 -11 -7 -6 -8 -17 -5 -7 -2 -2 -2 -1 -2
-78 -71 -57 -40 -30 -27 -28 -17 -6 -14 -41 -23 -1 -2 -1 -1 -3 -2 -1 -2 -1 -1 -1 -2 -2 -2 -5 -4 -9 -4 -4 -14 -11 -8 -4 -5 -2 -2 -2 -10 -6 -3 -1
-96 -82 -66 -62 -44 -27 -17 -27 -22 -15 -7 -7 -4 -3 -3 -1 -1 -1 -1 -1 -4 -2 -1 -1 -2 -2 -4 -5 -4 -6 -9 -4 -3 -1 -2 -1 -2 -3 -11 -3 -20 -24 -15
-102 -109 -86 -59 -41 -27 -11 -13 -17 -12 -16 -4 -2 -1 -1 -6 -6 -2 -1 -1 -1 -1 -2 -1 -2 -3 -2 -4 -2 -2 -8 -7 -3 -6 -4 -10 -3 -14 -5 -4 -33 -37 -21
-115 -112 -91 -72 -43 -30 -22 -18 -14 -10 -8 -8 -9 -12 -10 -15 -17 -10 -2 -1 -1 -3 -12 -5 -1 -3 -6 -9 -14 -30 -34 -27 -9 -1 -1 -1 -5 -2 -12 -12 -11 -18 -10
-109 -119 -96 -75 -59 -37 -29 -22 -19 -12 -6 -7 -17 -17 -18 -12 -25 -42 -41 -34 -13 -2 -2 -1 -2 -3 -3 -2 -38 -86 -102 -135 -135 -79 -57 -38 -6 -2 -2 0 -1 -2 -3
-100 -84 -86 -80 -65 -46 -39 -32 -23 -13 -9 -6 -16 -19 -20 -22 -45 -64 -88 -63 -57 -60 -42 -22 -14 -6 -1 -5 -1 -1 -7 -7 -62 -75 -45 0 0 0 0 -14 -26 -34 -57
-70 -61 -69 -78 -74 -47 -34 -30 -21 -13 -7 -2 -5 -5 -6 -24 -76 -96 -89 -43 -46 -34 -35 -36 -24 -2 -68 -112 -63 -50 -122 -48 -18 0 0 0 0 0 0 0 0 0 0
-60 -61 -64 -62 -73 -57 -31 -17 -16 -16 -15 -9 -4 -3 -3 -2 -19 -105 -108 -54 -67 -69 -51 -7 -38 -30 -218 0 -142 -111 -95 -63 -1 -1 -3 -1 0 0 0 0 -1 0 -1
-40 -71 -95 -105 -75 -48 -24 -6 -8 -3 -2 -1 -2 -2 -2 -4 -3 -81 -128 -73 -101 -73 -14 -10 -3 -241 -1 0 0 0 0 0 0 0 0 -1 -1 -2 -3 0 -2 -1 -1
-7 -5 -9 -1 -3 -3 -18 -43 -125 -104 -33 -7 -7 -5 -7 -47 -100 -223 -226 -229 -215 -68 -118 -217 -293 -438 0 0 0 0 0 0 0 0 -1 -1 -2 -3 -2 -1 -5 0 -4
-47 -97 -74 -23 -15 -5 -80 -356 -531 -225 -313 -320 -371 -250 -23 -165 -223 -250 -231 -278 -309 -190 -195 -286 -45 0 0 0 0 0 0 0 0 -1 -1 -1 -2 -3 -1 -2 -1 -2 -1
-22 -36 -52 -71 -82 -53 -196 -455 -358 -473 -316 0 -311 -36 -36 -151 -129 -265 -337 -473 -451 -330 0 0 0 0 0 0 0 0 0 -2 -1 -1 -1 -3 -2 -1 -2 -1 -1 0 -4
-20 -25 -18 -41 -13 -31 -123 -77 -84 -237 0 -162 0 0 0 -77 -116 -199 -356 0 0 -67 0 0 0 0 0 0 0 0 -1 -3 -2 -1 -1 -2 -2 -3 -1 -1 0 0 -1
-19 -30 -56 -57 -5 -40 -61 -90 -310 -210 -247 -211 -175 -168 -29 -145 -213 -240 -162 0 0 0 0 0 0 0 0 0 0 -1 -2 -4 -3 -2 -2 -1 -1 -1 0 0 0 0 0
-14 -75 -34 -14 -5 -19 -51 -16 -30 -388 -14 -319 -249 -315 -310 -316 0 0 0 0 0 0 0 0 0 0 0 0 0 0 -1 -4 -4 -1 -2 -2 -1 0 0 0 0 0 0
-26 -6 0 0 0 -18 -48 -20 -24 -49 -21 -114 0 -170 -265 0 0 0 0 0 0 0 0 0 0 0 0 0 0 0 -1 -2 -1 -1 -1 -2 0 -1 -1 0 0 0 0
-15 0 0 0 0 -1 0 0 -29 -23 -43 -32 -27 0 0 0 0 0 0 0 0 0 0 0 0 0 0 0 0 -1 -2 -3 -2 -5 -1 -1 -1 -1 -3 0 0 0 0
-3 -10 0 0 0 -4 -4 -58 0 0 -44 -34 -18 -2 0 0 0 0 0 0 0 0 0 0 0 0 0 0 0 -2 -3 -2 -1 -1 -3 -1 -3 -2 -1 0 0 0 0
-4 -3 -12 -3 -1 -1 -1 -4 0 0 -2 -30 -5 -3 -111 -1 0 0 0 0 0 0 0 0 0 0 0 0 0 -1 -2 -2 -4 -9 -5 -6 -2 -2 -1 -1 0 0 0
-3 -2 -1 -5 -6 -6 -5 -6 -4 -4 -35 -43 -7 -52 -94 -130 -203 0 0 0 0 0 0 0 0 0 0 0 0 0 0 -3 -3 -4 -12 -10 -2 -1 -1 -1 -1 0 0
-6 -4 -3 -5 -6 -5 -6 -5 -4 -3 -22 -11 -3 -13 0 -77 -87 -70 0 0 0 0 0 0 0 0 0 0 0 0 0 0 -1 -1 -1 -3 -2 -2 -1 -2 -3 -2 -1
-5 -7 -5 -5 -4 -5 -4 -10 -2 -7 -6 -4 -3 -3 -18 -38 -68 -47 0 0 0 0 0 0 0 0 0 0 0 0 0 0 0 0 0 -2 -1 0 -1 -1 -2 -2 -3
-27 -3 -4 -4 -2 -2 -4 -2 -3 -5 -5 -5 -2 -4 -2 -20 -35 -64 0 0 0 0 0 0 0 0 0 0 0 0 0 0 0 0 0 0 0 0 0 0 0 0 0
-3 -6 -5 -4 -3 -5 -4 -1 -2 -3 -2 -2 -2 -4 -3 -5 -33 -34 -28 -2 0 0 0 0 0 0 0 0 0 0 0 0 0 0 0 0 0 0 0 0 0 0 0
Wind_Speed
18 16 14 14 14 15 15 11 18 12 8 11 2 3 3 3 2 4 15 28 11 11 16 25 11 19 22 23 23 17 12 18 17 23 29 29 23 16 19 23 16 7 8
16 15 14 14 14 15 16 9 11 17 10 4 4 5 6 6 7 9 12 16 14 22 22 21 21 17 12 16 21 26 25 20 13 7 17 20 24 22 15 13 16 19 25
15 15 14 12 12 12 14 15 9 10 15 16 10 8 5 5 4 4 9 18 27 28 28 21 16 15 21 28 29 30 22 11 10 8 18 19 19 17 20 12 15 22 22
16 15 14 14 14 13 10 11 11 12 12 15 16 14 17 20 21 18 12 17 29 32 30 30 24 26 25 21 21 28 20 22 27 23 23 24 19 17 14 19 23 24 9
15 15 13 12 11 9 9 8 8 7 11 15 17 18 18 24 22 17 16 5 7 20 31 30 26 20 17 25 27 30 32 26 25 33 31 29 26 30 29 25 24 24 24
7 9 8 8 8 8 8 8 7 8 7 8 15 16 18 21 20 15 6 8 6 10 16 32 30 31 22 12 8 9 22 18 17 23 21 28 31 33 35 31 27 27 26
9 6 5 5 7 7 6 6 7 8 7 8 9 11 11 9 9 9 7 10 27 25 21 22 26 31 30 30 23 19 20 17 17 22 26 24 30 32 31 31 31 31 30
12 10 8 5 6 7 7 6 6 6 7 7 7 8 8 8 10 9 9 11 15 22 27 29 31 31 32 29 26 22 24 24 21 19 20 22 27 29 28 29 32 35 35
13 12 11 8 7 7 7 6 5 6 7 6 6 8 8 8 8 9 8 12 14 16 17 20 23 26 25 25 27 27 26 26 24 22 22 22 25 24 21 21 30 37 37
14 15 15 14 12 11 10 9 9 7 11 12 13 21 26 23 15 9 9 9 11 11 12 12 19 23 25 26 24 25 28 28 29 27 21 19 18 18 15 13 25 29 32
17 17 18 18 17 17 17 16 16 15 15 16 23 22 22 20 24 11 9 11 11 10 14 17 21 21 20 20 22 25 29 34 32 26 23 21 21 17 18 13 17 24 30
16 15 16 16 16 14 13 16 20 21 24 23 23 27 27 26 20 17 14 13 14 14 14 14 15 18 21 20 23 25 26 28 23 20 21 23 23 25 25 28 23 23 23
20 20 21 20 19 15 14 15 23 24 26 25 27 32 41 30 22 17 15 12 11 12 12 13 17 17 18 24 22 22 20 18 14 16 17 17 20 26 28 27 26 25 26
26 29 29 25 26 25 26 29 26 23 22 33 40 38 42 42 32 23 23 16 16 16 17 18 17 21 24 24 21 16 13 13 13 14 15 18 24 23 22 24 25 24 23
29 29 27 27 26 26 27 26 23 24 25 26 30 26 34 45 35 21 20 9 11 14 16 16 14 16 19 17 16 14 11 8 9 13 14 16 18 19 22 22 21 20 20
34 33 34 32 30 29 28 28 24 23 25 24 16 7 15 16 6 9 13 10 9 8 12 16 18 20 19 19 18 14 11 9 7 8 11 12 13 16 16 17 16 16 17
32 34 35 33 30 30 30 29 30 26 23 19 16 13 12 13 14 10 9 7 5 6 9 9 20 18 15 15 15 13 13 9 9 9 12 12 14 15 16 17 16 16 15
28 28 31 34 32 30 33 32 32 30 26 21 20 18 20 23 20 14 8 7 8 7 4 6 15 16 16 15 15 15 13 12 9 10 11 11 12 13 14 16 15 17 17
30 31 31 31 30 30 32 34 33 30 31 30 20 21 22 22 18 12 8 7 6 6 6 13 12 14 15 15 14 13 14 11 10 10 11 10 13 14 14 15 14 16 15
29 32 36 37 37 32 28 33 35 35 33 32 31 27 18 18 16 15 9 9 6 6 3 14 11 12 17 17 16 13 13 13 13 13 12 10 11 12 13 14 14 14 13
34 35 29 32 34 35 36 33 33 37 36 33 33 28 18 19 18 16 12 12 10 9 12 14 14 13 14 15 16 14 12 11 12 11 11 9 11 12 13 13 13 12 12
34 34 34 34 34 35 36 36 34 32 35 35 34 27 16 19 21 18 17 14 14 14 16 15 16 14 14 14 12 14 16 16 14 11 9 8 9 11 12 12 11 10 10
33 33 32 34 34 36 38 36 33 37 32 34 28 24 22 23 23 24 21 19 18 14 16 19 14 17 17 14 13 14 15 15 15 14 12 8 9 8 8 7 7 7 7
30 31 31 33 35 36 35 35 35 33 36 32 31 30 27 29 27 29 25 23 19 16 15 17 17 18 18 16 13 14 15 15 14 12 10 9 8 8 9 9 8 8 8
20 23 26 29 32 33 32 35 36 33 31 34 34 33 32 29 29 31 30 26 23 21 19 18 18 18 18 18 16 14 13 11 12 17 9 9 10 10 9 10 9 10 9
21 23 22 26 26 27 24 20 30 35 26 31 32 30 31 29 26 27 29 28 26 23 23 21 20 19 18 16 15 14 9 10 12 13 13 11 11 11 11 11 11 11 9
Wind_Direction
162 156 154 155 159 164 164 156 173 170 290 287 238 256 245 262 231 285 296 269 310 316 307 287 323 310 304 306 314 332 344 331 331 322 306 308 325 340 332 321 333 350 349
164 160 159 155 156 160 168 152 157 175 173 204 261 268 276 275 288 292 295 294 300 289 293 301 300 309 329 327 317 307 311 327 336 328 332 325 320 322 330 334 327 321 313
165 166 167 163 160 158 161 166 154 157 173 179 182 189 209 213 252 272 294 288 274 276 276 299 314 317 308 289 297 297 319 333 330 325 330 331 329 329 325 323 326 318 315
167 169 171 172 170 167 158 160 162 164 167 173 180 183 185 189 192 190 291 285 271 257 272 271 293 294 303 313 312 305 322 319 312 320 323 323 324 321 317 314 315 313 298
170 172 172 173 172 168 165 162 163 162 170 176 181 184 185 193 192 188 188 244 285 278 267 277 290 303 309 306 305 301 299 318 318 304 314 318 321 315 311 312 313 310 309
186 181 177 177 178 175 170 169 170 173 175 175 180 183 186 190 190 189 251 282 274 296 300 271 283 288 312 316 296 300 315 319 319 319 320 319 316 312 305 304 307 306 305
269 242 210 190 181 186 186 182 181 180 182 188 188 188 193 204 204 263 238 197 271 282 293 297 295 292 301 304 317 320 323 323 319 319 317 319 320 315 310 303 297 299 300
277 273 259 237 204 185 185 201 207 200 193 199 207 207 211 215 206 221 260 275 283 285 284 287 292 297 301 307 313 318 321 323 322 322 323 326 327 324 319 307 299 294 296
281 279 271 263 253 235 223 223 243 267 278 266 258 271 251 249 225 216 247 277 284 290 297 302 305 306 311 314 314 316 320 321 323 323 320 320 322 325 330 323 299 287 292
282 280 278 278 277 271 266 265 283 276 282 285 287 284 278 279 276 248 238 272 286 296 303 308 314 311 313 315 317 320 319 320 320 322 325 326 324 322 324 326 311 300 300
291 286 281 283 287 288 290 289 287 290 289 286 284 284 283 281 276 253 246 274 285 296 306 309 315 318 319 320 320 320 318 315 315 321 321 323 324 322 323 324 319 311 305
294 290 288 292 291 290 288 291 292 290 295 294 293 283 279 278 275 272 268 271 290 295 300 306 310 314 315 319 321 321 322 321 325 326 325 323 323 319 317 315 316 315 311
288 287 291 294 296 295 295 291 298 307 290 288 290 291 278 274 271 270 272 266 267 287 297 308 314 313 314 318 320 324 330 335 342 341 338 335 331 321 320 321 322 320 318
286 285 286 288 289 291 294 296 291 284 292 296 297 290 292 275 265 274 282 288 292 296 305 312 314 310 307 311 324 333 344 349 353 348 347 341 331 334 337 332 329 331 331
287 289 291 291 293 294 294 295 296 296 297 309 317 312 293 265 244 283 287 285 300 300 314 316 325 324 308 320 327 336 350 8 5 356 353 349 346 344 340 341 342 342 341
279 283 285 286 291 292 294 294 297 298 298 305 311 224 215 213 281 266 226 255 283 306 314 307 302 300 309 313 319 332 347 4 21 22 10 5 5 1 2 5 6 3 350
280 280 281 282 291 293 293 293 295 296 298 301 294 284 283 295 291 273 247 251 284 324 335 336 281 296 315 318 323 332 341 359 6 13 5 7 2 5 5 3 9 8 10
283 283 284 285 290 292 289 292 293 294 295 299 294 294 288 287 289 288 248 275 299 318 333 341 305 305 309 314 320 326 339 347 358 359 2 5 9 9 5 3 6 6 8
278 281 284 285 288 291 291 291 291 293 291 292 296 292 292 291 285 269 229 273 294 301 298 303 313 311 312 314 322 329 332 343 349 357 358 359 354 356 360 1 6 4 9
274 277 279 282 284 287 289 289 287 286 288 288 288 289 292 295 283 272 258 282 293 302 285 291 304 310 306 308 314 323 328 332 335 341 348 356 357 355 356 358 2 3 7
274 276 278 279 282 283 284 286 286 282 282 283 284 285 282 287 282 274 267 270 278 286 291 292 296 302 308 311 310 316 324 329 331 337 344 352 351 352 354 358 1 2 4
274 276 277 278 281 282 283 284 283 281 279 278 281 284 272 282 279 275 269 265 270 275 283 287 292 298 303 306 313 315 314 317 323 330 341 354 354 349 352 1 13 20 23
272 275 277 278 280 283 283 282 284 280 279 276 277 276 272 275 271 267 269 271 271 271 278 280 286 289 293 304 310 313 315 318 321 322 329 342 347 353 3 21 28 31 41
275 276 277 277 280 282 282 282 282 278 275 275 274 273 269 267 269 263 265 266 267 271 275 276 279 284 288 296 306 309 313 315 323 326 328 335 340 348 348 354 356 360 6
271 275 278 280 283 284 284 278 275 277 277 274 272 271 269 263 266 261 259 262 265 268 271 274 277 280 283 288 296 305 316 320 320 316 329 330 331 337 339 341 343 346 348
273 275 279 284 286 286 285 281 277 273 275 272 271 269 268 266 263 265 259 261 264 266 268 271 275 278 281 284 286 292 304 314 311 309 314 320 323 325 329 329 329 332 339